Weather History for KC75 - December, 2013

Change the Weather History Date:

Friday, December 13, 2013

  Actual Average (KPIA) Record (KPIA)
Temperature  
Mean Temperature 22 °F 29 °F  
Max Temperature 35 °F 36 °F 63 °F (1975)
Min Temperature 8 °F 21 °F -8 °F (1958)
Degree Days  
Heating Degree Days 44 36  
Month to date heating degree days 440  
Since 1 July heating degree days 1588  
Cooling Degree Days 0 0  
Month to date cooling degree days 0  
Year to date cooling degree days 1039  
Moisture  
Dew Point 20 °F    
Average Humidity 84    
Maximum Humidity 99    
Minimum Humidity 59    
Precipitation  
Precipitation 0.17 in 0.08 in 1.12 in (1928)
Month to date precipitation 1.16  
Year to date precipitation 35.23  
Snow  
Snow 0.00 in 0.20 in 3.20 in (2003)
Month to date snowfall 2.6  
Since 1 July snowfall 3.7  
Snow Depth -    
Sea Level Pressure  
Sea Level Pressure 30.10 in    
Wind  
Wind Speed 2 mph (ESE)    
Max Wind Speed 9 mph    
Max Gust Speed -    
Visibility 7 miles    
Events Snow    
T = Trace of Precipitation, MM = Missing Value Source: NWS Daily Summary

Daily Weather History Graph

Daily Weather History Graph

Search for Another Location

Airport or City:

Trip Planner

Search our weather history database for the weather conditions in past years. The results will help you decide how hot, cold, wet, or windy it might be!

Date:

Astronomy

Dec. 13, 2013 Rise Set
Actual Time 7:14 AM CST 4:29 PM CST
Civil Twilight 6:43 AM CST 5:00 PM CST
Nautical Twilight 6:08 AM CST 5:35 PM CST
Astronomical Twilight 5:35 AM CST 6:08 PM CST
Moon 2:13 PM CST (12/13) 3:35 AM CST (12/13)
Length of Visible Light 10h 17m
Length of Day
9h 15m
Waxing Gibbous, 88% of the Moon is Illuminated
Dec 13
Waxing Gibbous
Dec 17
Full
Dec 25
Last Quarter
Jan 1
New
Jan 7
First Quarter

Hourly Weather History & Observations

Time (CST) Temp. Windchill Dew Point Humidity Pressure Visibility Wind Dir Wind Speed Gust Speed Precip Events Conditions
12:15 AM 10.6 °F - 7.7 °F 88% 30.21 in 10.0 mi Calm Calm - N/A   Clear
12:35 AM 10.6 °F - 7.9 °F 89% 30.20 in 10.0 mi Calm Calm - N/A   Clear
12:55 AM 11.1 °F - 8.2 °F 88% 30.20 in 10.0 mi Calm Calm - N/A   Clear
1:15 AM 11.1 °F - 8.8 °F 90% 30.19 in 10.0 mi Calm Calm - N/A   Clear
1:35 AM 10.2 °F - 7.7 °F 90% 30.18 in 10.0 mi Calm Calm - N/A   Clear
1:55 AM 10.4 °F - 7.7 °F 89% 30.18 in 10.0 mi Calm Calm - N/A   Clear
2:15 AM 10.2 °F - 7.3 °F 88% 30.18 in 10.0 mi Calm Calm - N/A   Clear
2:35 AM 10.0 °F - 7.3 °F 89% 30.18 in 10.0 mi Calm Calm - N/A   Clear
2:55 AM 8.4 °F - 5.4 °F 87% 30.17 in 10.0 mi Calm Calm - N/A   Clear
3:15 AM 9.0 °F - 6.8 °F 91% 30.17 in 10.0 mi Calm Calm - N/A   Clear
3:35 AM 9.5 °F - 7.2 °F 90% 30.16 in 10.0 mi Calm Calm - N/A   Clear
3:55 AM 9.7 °F - 7.2 °F 90% 30.15 in 10.0 mi Calm Calm - N/A   Clear
4:15 AM 9.5 °F - 6.4 °F 87% 30.15 in 10.0 mi Calm Calm - N/A   Clear
4:35 AM 9.5 °F - 6.4 °F 87% 30.14 in 10.0 mi Calm Calm - N/A   Clear
4:55 AM 11.1 °F - 8.2 °F 88% 30.15 in 10.0 mi Calm Calm - N/A   Clear
5:15 AM 12.2 °F 6.1 °F 9.1 °F 88% 30.14 in 10.0 mi South 3.5 mph - N/A   Clear
5:35 AM 11.3 °F 5.1 °F 8.6 °F 89% 30.14 in 10.0 mi South 3.5 mph - N/A   Clear
5:55 AM 13.3 °F - 10.2 °F 88% 30.14 in 10.0 mi Calm Calm - N/A   Clear
6:15 AM 13.5 °F - 10.6 °F 88% 30.14 in 10.0 mi Calm Calm - N/A   Clear
6:35 AM 13.8 °F 8.0 °F 10.9 °F 88% 30.14 in 10.0 mi SSW 3.5 mph - N/A   Clear
6:55 AM 15.3 °F 7.9 °F 11.8 °F 86% 30.15 in 10.0 mi South 4.6 mph - N/A   Clear
7:15 AM 16.3 °F - 12.2 °F 84% 30.14 in 10.0 mi Calm Calm - N/A   Clear
7:35 AM 14.7 °F - 10.8 °F 84% 30.14 in 10.0 mi Calm Calm - N/A   Clear
7:55 AM 15.3 °F - 11.8 °F 86% 30.15 in 7.0 mi Calm Calm - N/A   Clear
8:15 AM 16.2 °F - 12.6 °F 86% 30.15 in 7.0 mi Calm Calm - N/A   Clear
8:35 AM 15.8 °F - 12.7 °F 88% 30.15 in 10.0 mi Calm Calm - N/A   Clear
8:55 AM 16.2 °F - 13.3 °F 88% 30.15 in 7.0 mi Calm Calm - N/A   Clear
9:15 AM 20.7 °F - 16.3 °F 83% 30.14 in 7.0 mi Calm Calm - N/A   Clear
9:35 AM 23.0 °F - 18.0 °F 81% 30.14 in 10.0 mi Calm Calm - N/A   Clear
9:55 AM 27.5 °F 23.6 °F 19.2 °F 71% 30.14 in 10.0 mi SSE 3.5 mph - N/A   Clear
10:15 AM 29.8 °F 26.3 °F 19.2 °F 65% 30.14 in 10.0 mi South 3.5 mph - N/A   Clear
10:35 AM 29.8 °F - 19.2 °F 65% 30.13 in 10.0 mi Calm Calm - N/A   Clear
10:55 AM 29.5 °F - 19.0 °F 65% 30.12 in 10.0 mi Calm Calm - N/A   Clear
11:15 AM 31.1 °F - 20.1 °F 64% 30.11 in 10.0 mi Calm Calm - N/A   Clear
11:35 AM 32.9 °F - 21.2 °F 62% 30.09 in 10.0 mi Calm Calm - N/A   Clear
11:55 AM 34.7 °F - 21.7 °F 59% 30.08 in 10.0 mi Calm Calm - N/A   Clear
12:15 PM 34.7 °F - 22.3 °F 61% 30.06 in 10.0 mi Calm Calm - N/A   Scattered Clouds
12:35 PM 34.7 °F 31.8 °F 22.8 °F 62% 30.06 in 10.0 mi ESE 3.5 mph - N/A   Mostly Cloudy
12:55 PM 34.0 °F 28.0 °F 23.4 °F 65% 30.07 in 10.0 mi SE 6.9 mph - N/A   Mostly Cloudy
1:15 PM 34.3 °F 30.2 °F 23.5 °F 65% 30.07 in 10.0 mi South 4.6 mph - N/A   Mostly Cloudy
1:35 PM 34.9 °F 32.0 °F 23.7 °F 64% 30.06 in 10.0 mi SSE 3.5 mph - N/A   Scattered Clouds
1:55 PM 35.1 °F 32.2 °F 24.6 °F 66% 30.04 in 10.0 mi ESE 3.5 mph - N/A   Mostly Cloudy
2:15 PM 35.1 °F 31.0 °F 24.4 °F 65% 30.03 in 10.0 mi ESE 4.6 mph - N/A   Overcast
2:35 PM 35.2 °F - 24.8 °F 66% 30.03 in 10.0 mi Calm Calm - N/A   Overcast
2:55 PM 35.2 °F 32.4 °F 25.5 °F 68% 30.03 in 10.0 mi East 3.5 mph - N/A   Overcast
3:15 PM 35.1 °F 31.0 °F 25.7 °F 69% 30.03 in 10.0 mi East 4.6 mph - N/A   Overcast
3:35 PM 34.7 °F 30.6 °F 26.4 °F 72% 30.04 in 10.0 mi East 4.6 mph - N/A   Overcast
3:55 PM 34.2 °F 29.0 °F 27.3 °F 76% 30.04 in 10.0 mi East 5.8 mph - N/A   Overcast
4:15 PM 33.8 °F 28.6 °F 27.7 °F 78% 30.05 in 10.0 mi East 5.8 mph - N/A   Overcast
4:35 PM 33.4 °F 25.9 °F 28.4 °F 82% 30.04 in 7.0 mi East 9.2 mph - N/A Snow Light Snow
4:55 PM 33.1 °F 28.7 °F 28.6 °F 84% 30.05 in 3.0 mi East 4.6 mph - N/A Snow Light Snow
5:15 PM 32.0 °F 27.5 °F 30.2 °F 93% 30.06 in 2.0 mi SE 4.6 mph - N/A Snow Light Snow
5:35 PM 31.6 °F - 30.9 °F 97% 30.07 in 0.8 mi Calm Calm - 0.02 in Snow Snow
5:55 PM 31.8 °F - 31.1 °F 97% 30.06 in 0.8 mi Calm Calm - 0.05 in Snow Snow
6:15 PM 31.6 °F - 31.1 °F 98% 30.06 in 1.0 mi Calm Calm - 0.02 in Snow Snow
6:35 PM 31.3 °F 25.6 °F 30.9 °F 99% 30.06 in 0.8 mi ENE 5.8 mph - 0.04 in Snow Snow
6:55 PM 30.0 °F 22.4 °F 29.3 °F 97% 30.06 in 0.5 mi ENE 8.1 mph - 0.05 in Snow Heavy Snow
7:15 PM 30.0 °F 21.7 °F 29.3 °F 97% 30.06 in 1.0 mi East 9.2 mph - N/A Snow Snow
7:35 PM 30.0 °F 22.4 °F 29.3 °F 97% 30.06 in 1.0 mi East 8.1 mph - 0.01 in Snow Snow
7:55 PM 30.0 °F 23.2 °F 29.3 °F 97% 30.06 in 0.8 mi East 6.9 mph - 0.01 in Snow Snow
8:15 PM 30.6 °F 25.8 °F 30.0 °F 98% 30.06 in 1.0 mi SE 4.6 mph - 0.01 in Snow Snow
8:35 PM 30.7 °F 26.0 °F 30.2 °F 98% 30.05 in 1.0 mi SE 4.6 mph - 0.02 in Snow Snow
8:55 PM 30.6 °F 25.8 °F 29.8 °F 97% 30.05 in 1.2 mi ESE 4.6 mph - 0.03 in Snow Light Snow
9:15 PM 30.6 °F 25.8 °F 29.8 °F 97% 30.05 in 1.2 mi East 4.6 mph - 0.01 in Snow Light Snow
9:35 PM 30.6 °F 24.7 °F 29.8 °F 97% 30.05 in 1.5 mi ESE 5.8 mph - 0.01 in Snow Light Snow
9:55 PM 30.6 °F 25.8 °F 29.8 °F 97% 30.04 in 1.8 mi East 4.6 mph - 0.01 in Snow Light Snow
10:15 PM 30.6 °F 24.7 °F 29.8 °F 97% 30.04 in 1.5 mi East 5.8 mph - 0.01 in Snow Light Snow
10:35 PM 30.6 °F 24.7 °F 29.8 °F 97% 30.05 in 1.8 mi ESE 5.8 mph - 0.01 in Snow Light Snow
10:55 PM 30.4 °F 22.2 °F 29.5 °F 96% 30.05 in 1.5 mi ESE 9.2 mph - 0.01 in Snow Light Snow
11:15 PM 30.2 °F 23.4 °F 29.3 °F 96% 30.05 in 1.2 mi ESE 6.9 mph - N/A Snow Light Snow
11:35 PM 30.2 °F 21.9 °F 29.3 °F 96% 30.04 in 1.2 mi East 9.2 mph - N/A Snow Light Snow
11:55 PM 30.2 °F 22.6 °F 29.3 °F 96% 30.04 in 1.2 mi East 8.1 mph - 0.01 in Snow Light Snow